Zurück zum Katalog

STARLINK-3159

AktivKommunikationVLEO
NORAD 49415·PAYLOAD·🇺🇸 United States

Gestartet Nov 13, 2021 von Cape Canaveral Space Force Station

Loading…

Nächste Überflüge (nächste 24 Stunden)

TLE

AktuellSource: CelesTrak SupGP

Epoche: Sep 14, 2026, 21:12 UTC

1 49415C 21104H   26257.88381944  .00028673  00000+0  84718-3 0  2571
2 49415  53.1579  77.6343 0001193  82.0197  60.5618 15.34375169    17

Verfolge STARLINK-3159 in Echtzeit mit AllMySat

Download on the App Store